Location: LDNL
(36.4545°S, 141.6685°E)
Time: 01:19:37
(UTC+11:00)

Transit 4A - All Passes

Search period start: 06 February 2023 00:00
Search period end: 16 February 2023 00:00
Orbit: 870 x 973 km, 66.8° (Epoch: 04 February)

Date Brightness Start Highest point End Pass type
(mag) Time Alt. Az. Time Alt. Az. Time Alt. Az.
06 Feb - 05:47:15 10° N 05:53:10 42° ENE 05:59:10 10° SE visible
06 Feb - 07:33:58 10° WNW 07:39:37 32° SW 07:45:20 10° S daylight
06 Feb - 14:53:00 10° S 14:58:28 30° SE 15:03:45 10° ENE daylight
06 Feb - 16:39:07 10° SW 16:44:55 42° WNW 16:50:32 10° N daylight
07 Feb - 05:56:00 10° NNW 06:02:16 64° ENE 06:08:38 10° SSE visible
07 Feb - 07:44:11 10° W 07:49:07 23° SW 07:54:07 10° S daylight
07 Feb - 15:01:55 10° SSW 15:07:53 44° ESE 15:13:37 10° NE daylight
07 Feb - 16:48:49 10° SW 16:53:56 27° WNW 16:58:53 10° NNW daylight
08 Feb - 04:23:14 10° NE 04:25:58 13° E 04:28:43 10° ESE visible
08 Feb - 06:05:04 10° NNW 06:11:26 87° WSW 06:17:55 10° SSE visible
08 Feb - 07:54:51 10° W 07:58:44 16° SW 08:02:39 10° S daylight
08 Feb - 13:27:16 10° SSE 13:29:33 12° SE 13:31:48 10° ESE daylight
08 Feb - 15:10:59 10° SSW 15:17:12 65° ESE 15:23:11 10° NE daylight
08 Feb - 16:58:59 10° WSW 17:02:52 17° WNW 17:06:40 10° NW daylight
09 Feb - 04:30:19 10° NNE 04:34:53 21° ENE 04:39:29 10° ESE visible
09 Feb - 06:14:25 10° NW 06:20:42 60° WSW 06:27:04 10° SSE visible
09 Feb - 08:06:22 10° WSW 08:08:27 12° SW 08:10:31 10° SSW daylight
09 Feb - 13:35:17 10° S 13:39:14 17° SE 13:43:07 10° E daylight
09 Feb - 15:20:10 10° SSW 15:26:26 85° WNW 15:32:26 10° NNE daylight
09 Feb - 17:11:01 10° W 17:11:44 10° W 17:12:26 10° WNW daylight
10 Feb - 04:38:20 10° NNE 04:43:51 32° ENE 04:49:26 10° SE visible
10 Feb - 06:24:04 10° NW 06:30:02 41° SW 06:36:06 10° SSE visible
10 Feb - 13:43:52 10° S 13:48:49 24° SE 13:53:39 10° ENE daylight
10 Feb - 15:29:30 10° SW 15:35:35 56° WNW 15:41:25 10° N daylight
11 Feb - 04:46:50 10° N 04:52:54 49° ENE 04:59:04 10° SE visible
11 Feb - 06:34:02 10° WNW 06:39:30 29° SW 06:44:59 10° S visible
11 Feb - 13:52:40 10° S 13:58:18 34° SE 14:03:46 10° ENE daylight
11 Feb - 15:39:02 10° SW 15:44:38 36° WNW 15:50:03 10° N daylight
12 Feb - 04:55:42 10° NNW 05:02:01 74° ENE 05:08:27 10° SSE visible
12 Feb - 06:44:23 10° W 06:49:01 20° SW 06:53:42 10° S daylight
12 Feb - 14:01:39 10° SSW 14:07:42 50° ESE 14:13:31 10° NE daylight
12 Feb - 15:48:52 10° SW 15:53:37 24° WNW 15:58:14 10° NNW daylight
13 Feb - 03:22:06 10° NE 03:25:38 16° ENE 03:29:12 10° ESE visible
13 Feb - 05:04:51 10° NNW 05:11:14 77° WSW 05:17:41 10° SSE visible
13 Feb - 06:55:16 10° WSW 06:58:40 15° SW 07:02:05 10° S daylight
13 Feb - 12:26:32 10° SSE 12:29:30 13° SE 12:32:24 10° ESE daylight
13 Feb - 14:10:45 10° SSW 14:16:59 74° ESE 14:22:59 10° NNE daylight
13 Feb - 15:59:18 10° WSW 16:02:31 15° WNW 16:05:42 10° NW daylight
14 Feb - 03:29:37 10° NNE 03:34:34 24° ENE 03:39:34 10° SE visible
14 Feb - 05:14:18 10° NW 05:20:31 52° WSW 05:26:48 10° SSE visible
14 Feb - 07:07:49 10° SW 07:08:25 10° SW 07:09:02 10° SSW daylight
14 Feb - 12:34:49 10° S 12:39:09 19° SE 12:43:22 10° E daylight
14 Feb - 14:19:58 10° SSW 14:26:11 75° WNW 14:32:09 10° NNE daylight
15 Feb - 03:37:49 10° N 03:43:34 37° ENE 03:49:23 10° SE visible
15 Feb - 05:24:04 10° WNW 05:29:54 36° SW 05:35:47 10° SSE visible
15 Feb - 12:43:29 10° S 12:48:42 27° SE 12:53:45 10° ENE daylight
15 Feb - 14:29:22 10° SW 14:35:17 49° WNW 14:41:01 10° N daylight
